When you browse on this site, cookies collect data to enhance your experience and personalize the content and advertising you see.
Visit our Privacy Policy to learn more. By continuing to use the site, you agree to this use of cookies and data.
  • In France
  • List of Countries
  • For 7 days
  • Water Temperature
  • Weather Map
  • Weather Widgets
  • user-avatar
    Login

    Hourly Weather Barnsley

    Today, 7 December, Saturday

    Time Temperature Precipitation Wind Pressure Humidity
    00:00 +7°C° 0 mm 5 mps 743 mmHg 84%
    01:00 +7°C° 0 mm 5 mps 744 mmHg 83%
    02:00 +7°C° 0 mm 5 mps 744 mmHg 83%
    03:00 +7°C° 0 mm 5 mps 745 mmHg 83%
    04:00 +7°C° 0 mm 5 mps 745 mmHg 83%
    05:00 +7°C° 0 mm 5 mps 746 mmHg 84%
    06:00 +7°C° 0 mm 4 mps 746 mmHg 85%
    07:00 +7°C° 0 mm 4 mps 746 mmHg 85%
    08:00 +7°C° 0 mm 4 mps 746 mmHg 85%
    09:00 +7°C° 0 mm 4 mps 746 mmHg 85%
    10:00 +7°C° 0 mm 5 mps 746 mmHg 82%
    11:00 +7°C° 0 mm 5 mps 746 mmHg 79%
    12:00 +8°C° 0 mm 5 mps 746 mmHg 77%
    13:00 +8°C° 0 mm 4 mps 746 mmHg 78%
    14:00 +8°C° 0 mm 4 mps 745 mmHg 79%
    15:00 +7°C° 0 mm 4 mps 745 mmHg 80%
    16:00 +8°C° 0 mm 5 mps 744 mmHg 82%
    17:00 +8°C° 0 mm 5 mps 744 mmHg 84%
    18:00 +8°C° 0 mm 6 mps 743 mmHg 86%
    19:00 +8°C° 0 mm 7 mps 742 mmHg 85%
    20:00 +8°C° 0 mm 7 mps 741 mmHg 84%
    21:00 +7°C° 0 mm 8 mps 740 mmHg 82%
    22:00 +7°C° 0.4 mm 9 mps 739 mmHg 82%
    23:00 +8°C° 0.4 mm 10 mps 737 mmHg 82%

    Tomorrow, 8 December, Sunday

    Time Temperature Precipitation Wind Pressure Humidity
    00:00 +8°C° 0.4 mm 10 mps 736 mmHg 82%
    01:00 +8°C° 0.6 mm 11 mps 735 mmHg 81%
    02:00 +9°C° 0.6 mm 11 mps 734 mmHg 80%
    03:00 +9°C° 0.6 mm 11 mps 733 mmHg 80%
    04:00 +8°C° 0 mm 10 mps 734 mmHg 76%
    05:00 +7°C° 0 mm 9 mps 734 mmHg 72%
    06:00 +6°C° 0 mm 8 mps 735 mmHg 68%
    07:00 +5°C° 0 mm 8 mps 735 mmHg 69%
    08:00 +5°C° 0 mm 8 mps 735 mmHg 69%
    09:00 +5°C° 0 mm 8 mps 735 mmHg 70%
    10:00 +5°C° 0.1 mm 8 mps 735 mmHg 68%
    11:00 +5°C° 0.1 mm 9 mps 735 mmHg 67%
    12:00 +5°C° 0.1 mm 9 mps 734 mmHg 65%
    13:00 +5°C° 0.1 mm 9 mps 734 mmHg 64%
    14:00 +5°C° 0.1 mm 9 mps 733 mmHg 64%
    15:00 +5°C° 0.1 mm 9 mps 732 mmHg 63%
    16:00 +4°C° 0 mm 8 mps 732 mmHg 65%
    17:00 +4°C° 0 mm 8 mps 731 mmHg 67%
    18:00 +4°C° 0 mm 8 mps 731 mmHg 69%
    19:00 +2°C° 0.4 mm 9 mps 730 mmHg 75%
    20:00 +2°C° 0.4 mm 9 mps 728 mmHg 80%
    21:00 +2°C° 0.4 mm 10 mps 727 mmHg 86%
    22:00 +2°C° 1.1 mm 10 mps 727 mmHg 81%
    23:00 +3°C° 1.1 mm 9 mps 728 mmHg 77%

    Day after tomorrow, 9 December, Monday

    Time Temperature Precipitation Wind Pressure Humidity
    00:00 +3°C° 1.1 mm 9 mps 728 mmHg 72%
    01:00 +3°C° 0 mm 10 mps 729 mmHg 71%
    02:00 +5°C° 0 mm 10 mps 730 mmHg 70%
    03:00 +4°C° 0 mm 11 mps 731 mmHg 69%
    04:00 +3°C° 0 mm 12 mps 733 mmHg 65%
    05:00 +3°C° 0 mm 12 mps 734 mmHg 62%
    06:00 +3°C° 0 mm 13 mps 736 mmHg 58%
    07:00 +3°C° 0 mm 12 mps 737 mmHg 59%
    08:00 +2°C° 0 mm 12 mps 739 mmHg 60%
    09:00 +2°C° 0 mm 11 mps 741 mmHg 61%
    10:00 +2°C° 0 mm 10 mps 743 mmHg 60%
    11:00 +2°C° 0 mm 10 mps 744 mmHg 59%
    12:00 +3°C° 0 mm 9 mps 746 mmHg 58%
    13:00 +2°C° 0 mm 8 mps 747 mmHg 59%
    14:00 +3°C° 0 mm 7 mps 749 mmHg 59%
    15:00 +2°C° 0 mm 5 mps 750 mmHg 60%
    16:00 +2°C° 0 mm 5 mps 751 mmHg 63%
    17:00 +1°C° 0 mm 4 mps 752 mmHg 65%
    18:00 +2°C° 0 mm 3 mps 753 mmHg 68%
    19:00 +1°C° 0 mm 3 mps 754 mmHg 68%
    20:00 +2°C° 0 mm 2 mps 754 mmHg 68%
    21:00 +2°C° 0 mm 2 mps 755 mmHg 68%
    22:00 +2°C° 0 mm 2 mps 755 mmHg 69%
    23:00 +2°C° 0 mm 2 mps 755 mmHg 69%

    10 December, Tuesday

    Time Temperature Precipitation Wind Pressure Humidity
    00:00 +2°C° 0 mm 2 mps 755 mmHg 69%
    01:00 +2°C° 0 mm 2 mps 754 mmHg 73%
    02:00 +1°C° 0 mm 3 mps 753 mmHg 76%
    03:00 +1°C° 0 mm 3 mps 753 mmHg 79%
    04:00 +1°C° 0 mm 4 mps 752 mmHg 80%
    05:00 +1°C° 0 mm 5 mps 751 mmHg 82%
    06:00 +2°C° 0 mm 6 mps 750 mmHg 83%
    07:00 +2°C° 0.6 mm 7 mps 748 mmHg 84%
    08:00 +2°C° 0.6 mm 8 mps 747 mmHg 86%
    09:00 +3°C° 0.6 mm 9 mps 746 mmHg 87%
    10:00 +5°C° 1 mm 10 mps 744 mmHg 87%
    11:00 +6°C° 1 mm 10 mps 742 mmHg 87%
    12:00 +6°C° 1 mm 11 mps 741 mmHg 87%
    13:00 +7°C° 0.3 mm 11 mps 739 mmHg 86%
    14:00 +8°C° 0.3 mm 11 mps 737 mmHg 85%
    15:00 +9°C° 0.3 mm 11 mps 736 mmHg 85%
    16:00 +7°C° 1.7 mm 10 mps 736 mmHg 86%
    17:00 +6°C° 1.7 mm 10 mps 736 mmHg 87%
    18:00 +3°C° 1.7 mm 10 mps 736 mmHg 87%
    19:00 +3°C° 0.6 mm 9 mps 737 mmHg 83%
    20:00 +4°C° 0.6 mm 8 mps 738 mmHg 79%
    21:00 +4°C° 0.6 mm 7 mps 739 mmHg 74%
    22:00 +4°C° 0 mm 7 mps 739 mmHg 73%
    23:00 +3°C° 0 mm 7 mps 740 mmHg 72%

    11 December, Wednesday

    Time Temperature Precipitation Wind Pressure Humidity
    00:00 +3°C° 0 mm 7 mps 741 mmHg 71%
    01:00 +3°C° 0 mm 6 mps 741 mmHg 71%
    02:00 +3°C° 0 mm 6 mps 742 mmHg 71%
    03:00 +2°C° 0 mm 6 mps 742 mmHg 71%
    04:00 +2°C° 0 mm 6 mps 742 mmHg 72%
    05:00 +2°C° 0 mm 6 mps 742 mmHg 73%
    06:00 +2°C° 0 mm 6 mps 742 mmHg 74%
    07:00 +2°C° 0 mm 6 mps 741 mmHg 77%
    08:00 +2°C° 0 mm 6 mps 741 mmHg 80%
    09:00 +2°C° 0 mm 6 mps 741 mmHg 83%
    10:00 +2°C° 0 mm 6 mps 740 mmHg 78%
    11:00 +3°C° 0 mm 6 mps 740 mmHg 74%
    12:00 +3°C° 0 mm 6 mps 739 mmHg 69%
    13:00 +3°C° 0 mm 6 mps 739 mmHg 71%
    14:00 +3°C° 0 mm 5 mps 739 mmHg 73%
    15:00 +4°C° 0 mm 4 mps 739 mmHg 75%
    16:00 +3°C° 0 mm 4 mps 739 mmHg 75%
    17:00 +3°C° 0 mm 4 mps 739 mmHg 75%
    18:00 +1°C° 0 mm 4 mps 739 mmHg 76%
    19:00 +1°C° 0 mm 4 mps 739 mmHg 76%
    20:00 +1°C° 0 mm 5 mps 740 mmHg 76%
    21:00 +1°C° 0 mm 5 mps 740 mmHg 75%
    22:00 +1°C° 0 mm 5 mps 740 mmHg 75%
    23:00 +1°C° 0 mm 5 mps 740 mmHg 76%

    12 December, Thursday

    Time Temperature Precipitation Wind Pressure Humidity
    00:00 +1°C° 0 mm 5 mps 740 mmHg 76%
    01:00 +1°C° 0 mm 6 mps 739 mmHg 76%
    02:00 +1°C° 0 mm 6 mps 739 mmHg 77%
    03:00 +1°C° 0 mm 6 mps 738 mmHg 78%
    04:00 +2°C° 0.3 mm 6 mps 737 mmHg 82%
    05:00 +2°C° 0.3 mm 6 mps 737 mmHg 86%
    06:00 +2°C° 0.3 mm 6 mps 736 mmHg 89%
    07:00 +3°C° 0.3 mm 6 mps 735 mmHg 89%
    08:00 +3°C° 0.3 mm 6 mps 734 mmHg 89%
    09:00 +4°C° 0.3 mm 6 mps 734 mmHg 89%
    10:00 +5°C° 0.1 mm 6 mps 733 mmHg 88%
    11:00 +5°C° 0.1 mm 6 mps 732 mmHg 86%
    12:00 +7°C° 0.1 mm 6 mps 731 mmHg 84%
    13:00 +7°C° 0.1 mm 6 mps 730 mmHg 85%
    14:00 +7°C° 0.1 mm 5 mps 729 mmHg 86%
    15:00 +7°C° 0.1 mm 5 mps 729 mmHg 87%
    16:00 +7°C° 0.1 mm 5 mps 728 mmHg 88%
    17:00 +6°C° 0.1 mm 5 mps 728 mmHg 89%
    18:00 +6°C° 0.1 mm 4 mps 728 mmHg 90%
    19:00 +6°C° 0 mm 5 mps 728 mmHg 89%
    20:00 +6°C° 0 mm 5 mps 728 mmHg 88%
    21:00 +6°C° 0 mm 5 mps 728 mmHg 87%
    22:00 +5°C° 0.1 mm 6 mps 728 mmHg 86%
    23:00 +5°C° 0.1 mm 6 mps 727 mmHg 85%
    Show more